Location: Newark
(46.8000°N, 92.1000°W)
Time: 08:02:40
(UTC+00:00)

Envisat - Visible Passes

Search period start: 01 October 2020 00:00
Search period end: 11 October 2020 00:00
Orbit: 764 x 766 km, 98.1° (Epoch: 01 October)

Date Brightness Start Highest point End Pass type
(mag) Time Alt. Az. Time Alt. Az. Time Alt. Az.
01 Oct 6.8 01:06:19 10° W 01:06:52 10° W 01:07:26 10° WNW visible
01 Oct 5.3 11:28:12 10° NNE 11:32:39 30° E 11:37:05 10° SSE visible
02 Oct 5.9 00:25:39 10° SW 00:29:34 22° W 00:33:32 10° NW visible
02 Oct 6.3 10:52:44 10° NE 10:55:27 14° E 10:58:11 10° ESE visible
04 Oct 6.4 00:52:58 10° WSW 00:55:20 13° W 00:57:42 10° WNW visible
04 Oct 5.7 11:17:06 10° NE 11:21:12 24° E 11:25:17 10° SSE visible
05 Oct 5.5 00:13:49 10° SSW 00:18:06 27° W 00:22:27 10° NW visible
05 Oct 6.6 10:42:23 10° ENE 10:43:56 11° E 10:45:28 10° ESE visible
06 Oct 4.7 11:42:02 10° NNE 11:46:50 40° E 11:51:35 10° SSE visible
07 Oct 6.2 00:40:38 10° SW 00:43:49 17° W 00:47:01 10° NW visible
07 Oct 6.0 11:06:04 10° NE 11:09:43 19° E 11:13:21 10° SE visible
08 Oct 5.1 00:02:04 10° SSW 00:06:39 34° W 00:11:17 10° NNW visible
09 Oct 5.1 11:30:50 10° NNE 11:35:24 32° E 11:39:55 10° SSE visible
10 Oct 6.0 00:28:34 10° SW 00:32:19 21° W 00:36:06 10° NW visible
10 Oct 6.2 10:55:12 10° NE 10:58:13 16° E 11:01:13 10° SE visible
